EW4427 Weather Reports


time (UTC)temp
C
wind
direction
speed
KPH
gust
KPH
rain 1hr
cm
rain 24hr
cm
rain mn
cm
humidity
%
barometer
mb
20260506081044 2 0 0.0 0.0 0.00 0.00 0.00 72 1011.0
20260506080546 2 0 0.0 0.0 0.00 0.00 0.00 72 1011.0
20260506073057 3 0 0.0 0.0 0.00 0.00 0.00 73 1010.8
20260506072548 3 0 0.0 0.0 0.00 0.00 0.00 73 1010.7
20260506072047 3 0 0.0 0.0 0.00 0.00 0.00 73 1010.8
20260506071555 3 0 0.0 0.0 0.00 0.00 0.00 72 1010.7
20260506071046 3 0 0.0 0.0 0.00 0.00 0.00 72 1010.9
20260506070546 3 0 0.0 0.0 0.00 0.00 0.00 72 1010.7
20260506062048 5 0 0.0 0.0 0.00 0.00 0.00 65 1011.0
20260506061557 5 0 0.0 0.0 0.00 0.00 0.00 65 1011.0
20260506061047 5 0 0.0 0.0 0.00 0.00 0.00 62 1010.9
20260506060547 5 0 0.0 0.0 0.00 0.00 0.00 62 1011.0
20260506060120 5 0 0.0 0.0 0.00 0.00 0.00 62 1010.8
20260506051047 5 0 0.0 0.0 0.00 0.00 0.00 61 1011.1
20260506050547 5 0 0.0 0.0 0.00 0.00 0.00 61 1011.1
20260506045048 6 0 0.0 0.0 0.00 0.00 0.00 54 1011.1
20260506044605 6 0 0.0 0.0 0.00 0.00 0.00 53 1011.1
20260506044047 6 0 0.0 0.0 0.00 0.00 0.00 53 1011.1
20260506043544 6 0 0.0 0.0 0.00 0.00 0.00 53 1011.0
20260506043103 6 0 0.0 0.0 0.00 0.00 0.00 53 1010.9
20260506042548 6 0 0.0 0.0 0.00 0.00 0.00 51 1011.0
20260506042046 7 0 0.0 0.0 0.00 0.00 0.00 52 1011.0
20260506041559 7 0 0.0 0.0 0.00 0.00 0.00 50 1011.0
20260506041046 7 0 0.0 0.0 0.00 0.00 0.00 50 1010.9
20260506040545 7 0 0.0 0.0 0.00 0.00 0.00 49 1010.9
20260506040056 7 0 0.0 0.0 0.00 0.00 0.00 49 1010.7
20260506035546 7 0 0.0 4.8 0.00 0.00 0.00 48 1010.7
20260506035046 7 0 0.0 4.8 0.00 0.00 0.00 48 1010.5
20260506034600 8 0 1.6 8.0 0.00 0.00 0.00 47 1010.4
20260506034045 8 11 1.6 8.0 0.00 0.00 0.00 47 1010.3
20260506033545 8 24 3.2 8.0 0.00 0.00 0.00 46 1010.4
20260506033052 8 21 0.0 3.2 0.00 0.00 0.00 48 1010.4
20260506032549 8 0 0.0 3.2 0.00 0.00 0.00 47 1010.4
20260506032048 8 0 0.0 4.8 0.00 0.00 0.00 47 1010.2
20260506031559 8 30 0.0 6.4 0.00 0.00 0.00 48 1010.4
20260506031045 8 0 0.0 6.4 0.00 0.00 0.00 47 1010.2
20260506030548 8 26 1.6 6.4 0.00 0.00 0.00 47 1010.2
20260506030053 8 18 0.0 6.4 0.00 0.00 0.00 48 1010.1
20260506025547 8 5 1.6 6.4 0.00 0.00 0.00 49 1010.1
20260506025047 8 0 0.0 1.6 0.00 0.00 0.00 50 1010.1
20260506024601 8 0 0.0 1.6 0.00 0.00 0.00 49 1010.0
20260506024046 8 0 0.0 0.0 0.00 0.00 0.00 49 1010.0
20260506023547 8 0 0.0 0.0 0.00 0.00 0.00 49 1009.9
20260506023100 8 0 0.0 0.0 0.00 0.00 0.00 47 1009.9
20260506022545 8 0 0.0 0.0 0.00 0.00 0.00 47 1009.9
20260506022045 8 0 0.0 0.0 0.00 0.00 0.00 46 1009.7
20260506021553 9 0 0.0 1.6 0.00 0.00 0.00 45 1009.6
20260506021046 9 0 0.0 3.2 0.00 0.00 0.00 46 1009.6
20260506020545 9 0 0.0 3.2 0.00 0.00 0.00 44 1009.4
20260506020053 9 0 0.0 3.2 0.00 0.00 0.00 44 1009.3
20260506015545 9 0 0.0 1.6 0.00 0.00 0.00 44 1009.3
20260506015047 10 0 0.0 3.2 0.00 0.00 0.00 43 1009.2
20260506014554 10 0 0.0 4.8 0.00 0.00 0.00 43 1009.2
20260506014046 10 0 0.0 4.8 0.00 0.00 0.00 41 1009.0
20260506013548 10 0 1.6 6.4 0.00 0.00 0.00 41 1009.0
20260506013052 10 5 0.0 6.4 0.00 0.00 0.00 41 1008.9
20260506012547 10 15 0.0 4.8 0.00 0.00 0.00 41 1008.7
20260506012047 11 0 0.0 4.8 0.00 0.00 0.00 40 1008.6
20260506011550 11 0 0.0 8.0 0.00 0.00 0.00 40 1008.6
20260506011046 11 26 0.0 8.0 0.00 0.00 0.00 40 1008.5
20260506010546 11 0 1.6 8.0 0.00 0.00 0.00 39 1008.5
20260506010056 11 21 0.0 4.8 0.00 0.00 0.00 40 1008.5
20260506005545 11 0 0.0 8.0 0.00 0.00 0.00 40 1008.3
20260506005042 11 0 1.6 8.0 0.00 0.00 0.00 39 1008.3
20260506004554 11 13 1.6 6.4 0.00 0.00 0.00 38 1008.2
20260506004048 11 19 0.0 6.4 0.00 0.00 0.00 39 1008.2
20260506003545 11 29 0.0 8.0 0.00 0.00 0.00 39 1008.0
20260506003047 11 5 0.0 8.0 0.00 0.00 0.00 38 1008.1
20260506002546 11 28 1.6 8.0 0.00 0.00 0.00 38 1007.9
20260506002047 12 0 0.0 4.8 0.00 0.00 0.00 39 1007.8
20260506001551 12 0 0.0 4.8 0.00 0.00 0.00 38 1007.9
20260506001045 12 0 0.0 4.8 0.00 0.00 0.00 37 1007.9
20260506000545 12 0 0.0 3.2 0.00 0.00 0.00 39 1007.9
20260506000052 12 0 0.0 8.0 0.00 0.00 0.00 37 1007.9
20260505235546 12 0 0.0 8.0 0.00 0.00 0.00 39 1007.9
20260505235047 12 0 0.0 6.4 0.00 0.00 0.00 36 1007.8
20260505234555 12 0 0.0 11.3 0.00 0.00 0.00 38 1007.7
20260505234046 12 0 0.0 12.9 0.00 0.00 0.00 38 1007.9
20260505233546 12 0 1.6 12.9 0.00 0.00 0.00 37 1007.8
20260505233049 12 0 0.0 9.7 0.00 0.00 0.00 37 1007.7
20260505232547 12 0 0.0 9.7 0.00 0.00 0.00 37 1007.7
20260505232046 12 0 0.0 4.8 0.00 0.00 0.00 37 1007.6
20260505231601 12 0 0.0 9.7 0.00 0.00 0.00 38 1007.8
20260505231045 13 0 0.0 9.7 0.00 0.00 0.00 39 1007.8
20260505230545 13 21 0.0 4.8 0.00 0.00 0.00 37 1007.7
20260505230057 13 0 0.0 4.8 0.00 0.00 0.00 38 1007.7
20260505225547 13 0 0.0 3.2 0.00 0.00 0.00 40 1007.8
20260505225048 13 183 0.0 3.2 0.00 0.00 0.00 36 1007.7
20260505224552 13 0 0.0 3.2 0.00 0.00 0.00 37 1007.8
20260505224047 13 0 0.0 3.2 0.00 0.00 0.00 39 1007.9
20260505223546 13 0 0.0 3.2 0.00 0.00 0.00 40 1007.8
20260505223050 13 0 0.0 8.0 0.00 0.00 0.00 35 1007.7
20260505222547 13 0 0.0 8.0 0.00 0.00 0.00 38 1007.7
20260505222046 13 0 1.6 8.0 0.00 0.00 0.00 35 1007.7
20260505221554 13 205 0.0 4.8 0.00 0.00 0.00 39 1007.7
20260505221046 13 0 0.0 6.4 0.00 0.00 0.00 36 1007.6
20260505220545 13 205 1.6 6.4 0.00 0.00 0.00 37 1007.5
20260505220055 13 0 1.6 6.4 0.00 0.00 0.00 35 1007.6
20260505215545 13 184 0.0 6.4 0.00 0.00 0.00 36 1007.5
20260505215045 13 0 0.0 9.7 0.00 0.00 0.00 38 1007.6
20260505214552 13 0 0.0 9.7 0.00 0.00 0.00 39 1007.7
20260505214044 13 0 0.0 8.0 0.00 0.00 0.00 37 1007.6
20260505213546 13 205 0.0 16.1 0.00 0.00 0.00 40 1007.6
20260505213057 13 0 0.0 16.1 0.00 0.00 0.00 35 1007.5
20260505212547 14 286 3.2 16.1 0.00 0.00 0.00 33 1007.5
20260505212044 15 0 3.2 12.9 0.00 0.00 0.00 36 1007.5
20260505211551 15 0 1.6 9.7 0.00 0.00 0.00 36 1007.6
20260505211046 14 0 0.0 8.0 0.00 0.00 0.00 40 1007.4
20260505210543 15 59 0.0 6.4 0.00 0.00 0.00 38 1007.5
20260505210051 15 40 0.0 11.3 0.00 0.00 0.00 42 1007.5
20260505205545 13 0 1.6 11.3 0.00 0.00 0.00 42 1007.7
20260505205048 14 0 1.6 6.4 0.00 0.00 0.00 40 1007.6
20260505204554 14 180 0.0 6.4 0.00 0.00 0.00 36 1007.8
20260505204042 14 0 1.6 6.4 0.00 0.00 0.00 40 1007.7
20260505203544 14 0 0.0 6.4 0.00 0.00 0.00 37 1007.8
20260505203100 15 0 0.0 6.4 0.00 0.00 0.00 43 1007.8
20260505202544 14 230 0.0 8.0 0.00 0.00 0.00 39 1007.8
20260505202045 15 222 0.0 8.0 0.00 0.00 0.00 42 1007.9
20260505201552 15 204 1.6 6.4 0.00 0.00 0.00 38 1008.1
20260505201044 14 225 0.0 6.4 0.00 0.00 0.00 43 1008.0
20260505200544 14 98 1.6 6.4 0.00 0.00 0.00 40 1008.0
20260505200049 15 0 0.0 9.7 0.00 0.00 0.00 41 1008.1
20260505195544 14 0 1.6 9.7 0.00 0.00 0.00 40 1008.2
20260505195044 14 179 1.6 8.0 0.00 0.00 0.00 40 1008.2
20260505194551 14 36 0.0 4.8 0.00 0.00 0.00 38 1008.4
20260505194044 14 0 0.0 14.5 0.00 0.00 0.00 39 1008.2
20260505193544 14 0 0.0 14.5 0.00 0.00 0.00 37 1008.4
20260505193048 14 58 1.6 14.5 0.00 0.00 0.00 37 1008.4
20260505192548 14 0 0.0 9.7 0.00 0.00 0.00 41 1008.4
20260505192044 14 227 0.0 11.3 0.00 0.00 0.00 40 1008.4
20260505191608 14 0 3.2 11.3 0.00 0.00 0.00 40 1008.5
20260505191044 14 0 1.6 8.0 0.00 0.00 0.00 41 1008.5
20260505190545 14 0 0.0 9.7 0.00 0.00 0.00 43 1008.4
20260505190047 13 199 0.0 9.7 0.00 0.00 0.00 39 1008.5
20260505185544 13 0 1.6 9.7 0.00 0.00 0.00 41 1008.4
20260505185044 14 210 0.0 6.4 0.00 0.00 0.00 41 1008.3
20260505184549 14 0 1.6 6.4 0.00 0.00 0.00 38 1008.2
20260505184045 15 211 0.0 6.4 0.00 0.00 0.00 38 1008.2
20260505183542 14 0 0.0 11.3 0.00 0.00 0.00 41 1008.0
20260505183051 13 0 1.6 12.9 0.00 0.00 0.00 39 1008.1
20260505182544 14 34 1.6 12.9 0.00 0.00 0.00 38 1008.1
20260505182047 14 236 1.6 12.9 0.00 0.00 0.00 36 1008.0
20260505181549 13 317 1.6 9.7 0.00 0.00 0.00 38 1008.0
20260505181044 13 0 0.0 6.4 0.00 0.00 0.00 37 1007.9
20260505180544 13 165 0.0 4.8 0.00 0.00 0.00 37 1007.9
20260505180104 13 207 0.0 8.0 0.00 0.00 0.00 36 1007.7
20260505175542 13 207 0.0 8.0 0.00 0.00 0.00 34 1007.8
20260505175042 13 0 0.0 6.4 0.00 0.00 0.00 38 1007.7
20260505174604 13 0 0.0 6.4 0.00 0.00 0.00 39 1007.6
20260505174043 13 255 1.6 9.7 0.00 0.00 0.00 42 1007.7
20260505173543 13 175 0.0 9.7 0.00 0.00 0.00 42 1007.9
20260505173055 13 209 3.2 9.7 0.00 0.00 0.00 42 1007.9
20260505172545 13 0 0.0 6.4 0.00 0.00 0.00 41 1007.9
20260505172045 12 0 0.0 6.4 0.00 0.00 0.00 38 1008.0
20260505171552 12 196 1.6 6.4 0.00 0.00 0.00 41 1008.1
20260505171046 13 0 0.0 4.8 0.00 0.00 0.00 42 1007.9
20260505170547 13 0 0.0 4.8 0.00 0.00 0.00 40 1007.9
20260505170052 13 0 0.0 4.8 0.00 0.00 0.00 41 1007.7
20260505165548 13 0 0.0 9.7 0.00 0.00 0.00 43 1007.8
20260505165045 13 355 0.0 9.7 0.00 0.00 0.00 39 1007.5
20260505164554 13 0 1.6 9.7 0.00 0.00 0.00 40 1007.7
20260505164043 13 0 1.6 8.0 0.00 0.00 0.00 38 1007.5
20260505163545 13 209 0.0 4.8 0.00 0.00 0.00 43 1007.4
20260505163052 13 350 0.0 14.5 0.00 0.00 0.00 44 1007.7
20260505162543 13 0 1.6 14.5 0.00 0.00 0.00 43 1007.8
20260505162047 12 184 3.2 8.0 0.00 0.00 0.00 46 1007.7
20260505161555 13 192 1.6 9.7 0.00 0.00 0.00 42 1007.9
20260505161047 13 209 0.0 9.7 0.00 0.00 0.00 41 1007.6
20260505160547 14 182 1.6 9.7 0.00 0.00 0.00 40 1007.6
20260505153054 12 217 1.6 8.0 0.00 0.00 0.00 41 1007.7
20260505152546 12 0 1.6 8.0 0.00 0.00 0.00 42 1007.8
20260505152045 12 194 0.0 6.4 0.00 0.00 0.00 46 1007.8
20260505151551 12 0 0.0 9.7 0.00 0.00 0.00 42 1007.7
20260505151045 12 187 1.6 9.7 0.00 0.00 0.00 41 1007.8
20260505150545 12 0 0.0 9.7 0.00 0.00 0.00 40 1007.7
20260505140545 11 188 1.6 14.5 0.00 0.00 0.00 50 1008.0
20260505124551 8 0 0.0 1.6 0.00 0.00 0.00 52 1007.9
20260505124047 8 0 0.0 1.6 0.00 0.00 0.00 54 1008.0
20260505123551 8 0 0.0 0.0 0.00 0.00 0.00 56 1008.3
20260505123053 8 0 0.0 0.0 0.00 0.00 0.00 56 1008.1
20260505122546 7 0 0.0 1.6 0.00 0.00 0.00 57 1008.2
20260505122045 7 0 0.0 3.2 0.00 0.00 0.00 58 1007.8
20260505121549 7 0 0.0 4.8 0.00 0.00 0.00 54 1007.6
20260505121043 7 69 0.0 4.8 0.00 0.00 0.00 54 1007.7
20260505120545 7 0 0.0 4.8 0.00 0.00 0.00 55 1007.7
20260505120053 7 0 0.0 4.8 0.00 0.00 0.00 55 1008.0
20260505115546 7 0 0.0 1.6 0.00 0.00 0.00 58 1009.0
20260505115047 7 0 0.0 1.6 0.00 0.00 0.00 56 1007.7
20260505114603 7 0 0.0 1.6 0.00 0.00 0.00 57 1007.1
20260505114045 7 0 0.0 1.6 0.00 0.00 0.00 54 1006.9
20260505113546 7 0 0.0 6.4 0.00 0.00 0.00 54 1006.7
20260505113107 7 0 0.0 6.4 0.00 0.00 0.00 52 1006.4
20260505112548 7 0 0.0 4.8 0.00 0.00 0.00 52 1006.3
20260505112043 7 28 0.0 3.2 0.00 0.00 0.00 52 1006.5
20260505111551 7 0 0.0 3.2 0.00 0.00 0.00 52 1006.5
20260505111043 7 11 0.0 4.8 0.00 0.00 0.00 52 1006.6
20260505110547 7 0 0.0 4.8 0.00 0.00 0.00 52 1007.0
20260505102045 7 0 0.0 3.2 0.00 0.00 0.00 50 1005.9
20260505101607 7 0 0.0 3.2 0.00 0.00 0.00 51 1006.0
20260505101045 7 0 0.0 6.4 0.00 0.00 0.00 50 1006.2
20260505100545 7 0 0.0 6.4 0.00 0.00 0.00 50 1006.1
20260505100105 7 0 1.6 11.3 0.00 0.00 0.00 51 1005.8
20260505095543 7 10 0.0 11.3 0.00 0.00 0.00 52 1005.6
20260505095044 7 11 0.0 9.7 0.00 0.00 0.00 53 1005.4
20260505094553 7 29 1.6 11.3 0.00 0.00 0.00 53 1005.5
20260505094047 7 351 0.0 11.3 0.00 0.00 0.00 53 1005.7
20260505093547 7 0 0.0 3.2 0.00 0.00 0.00 53 1005.9
20260505093104 7 0 0.0 4.8 0.00 0.00 0.00 54 1005.8
20260505092547 7 0 0.0 4.8 0.00 0.00 0.00 54 1006.0
20260505092046 7 304 0.0 1.6 0.00 0.00 0.00 54 1006.1
20260505091554 7 0 0.0 1.6 0.00 0.00 0.00 54 1006.0
20260505091045 7 0 0.0 0.0 0.00 0.00 0.00 54 1006.0
20260505090545 7 0 0.0 1.6 0.00 0.00 0.00 53 1005.9
20260505090101 7 0 0.0 8.0 0.00 0.00 0.00 53 1005.6
20260505085546 8 0 0.0 8.0 0.00 0.00 0.00 51 1005.4
20260505085045 8 0 0.0 4.8 0.00 0.00 0.00 52 1005.4
20260505084557 8 24 0.0 3.2 0.00 0.00 0.00 52 1005.3
20260505084042 8 0 0.0 8.0 0.00 0.00 0.00 52 1004.9
20260505083546 8 25 1.6 8.0 0.00 0.00 0.00 51 1004.7
20260505083053 8 0 0.0 12.9 0.00 0.00 0.00 51 1004.7
20260505082542 8 15 1.6 12.9 0.00 0.00 0.00 51 1004.3
20260505082047 8 360 1.6 11.3 0.00 0.00 0.00 51 1004.4
20260505081604 8 0 3.2 11.3 0.00 0.00 0.00 51 1004.5